Back to catalog

THORAD AGENA D DEB

AlivePO
NORAD 4855·DEBRIS·🇺🇸 United States

Launched Apr 8, 1970 from Vandenberg Space Force Base

Loading…

Next Passes (next 24 hours)

TLE

FreshSource: Space-Track

Epoch: Sep 13, 2026, 20:54 UTC

1 04855U 70025EK  26256.87097979  .00000424  00000-0  49579-3 0  9990
2 04855  99.9577 213.8529 0013997 186.6244 230.0668 13.74902053809163

Track THORAD AGENA D DEB in real time with AllMySat

Download on the App Store